www.pogodaiklimat.ru

Архив погоды в Ла-Плате (Аргентина)

Время
(UTC), дата
10 6.04
11 6.04
12 6.04
13 6.04
14 6.04
15 6.04
17 6.04
18 6.04
19 6.04
20 6.04
21 6.04
22 6.04
23 6.04
00 7.04
01 7.04
02 7.04
03 7.04
04 7.04
05 7.04
06 7.04
07 7.04
08 7.04
09 7.04
10 7.04
11 7.04
12 7.04
13 7.04
14 7.04
15 7.04
16 7.04
17 7.04
18 7.04
19 7.04
20 7.04
21 7.04
22 7.04
23 7.04
00 8.04
01 8.04
02 8.04
03 8.04
04 8.04
05 8.04
06 8.04
07 8.04
08 8.04
09 8.04
10 8.04
11 8.04
12 8.04
13 8.04
14 8.04
15 8.04
16 8.04
17 8.04
18 8.04
19 8.04
20 8.04
21 8.04
22 8.04
23 8.04
00 9.04
01 9.04
02 9.04
03 9.04
04 9.04
05 9.04
06 9.04
07 9.04
08 9.04
09 9.04
10 9.04
11 9.04
12 9.04
13 9.04
14 9.04
15 9.04
16 9.04
17 9.04
18 9.04
19 9.04
20 9.04
21 9.04
22 9.04
23 9.04
00 10.04
01 10.04
02 10.04
03 10.04
04 10.04
05 10.04
06 10.04
07 10.04
08 10.04
09 10.04
10 10.04
11 10.04
12 10.04
13 10.04
14 10.04
15 10.04
16 10.04
17 10.04
18 10.04
19 10.04
20 10.04
21 10.04
22 10.04
23 10.04
00 11.04
01 11.04
02 11.04
03 11.04
04 11.04
05 11.04
06 11.04
07 11.04
08 11.04
09 11.04
10 11.04
11 11.04
12 11.04
13 11.04
14 11.04
15 11.04
16 11.04
17 11.04
18 11.04
19 11.04
20 11.04
21 11.04
22 11.04
23 11.04
00 12.04
01 12.04
02 12.04
03 12.04
04 12.04
05 12.04
06 12.04
07 12.04
08 12.04
09 12.04
11 12.04
12 12.04
13 12.04
14 12.04
15 12.04
16 12.04
17 12.04
18 12.04
19 12.04
20 12.04
21 12.04
22 12.04
23 12.04
00 13.04
01 13.04
02 13.04
03 13.04
04 13.04
05 13.04
06 13.04
07 13.04
08 13.04
Ветер
(напр.,м/с)
Видим. Явления Облачность Т
(С)
Тd
(С)
f
(%)
Тe
(С)
Тes
(С)
Комфортность P
(гПа)
Po
(гПа)
Тmin
(С)
Tmax
(С)
R
(мм)
R24
(мм)
S
(см)
штиль 0 6000 м дымка ясно +14.4 +13.7 96 +14 +14 1018.2 1015.6
СВ 2 5000 м дымка ясно +14.9 +14.4 97 +15 +15 1019.1 1016.4
СВ 2 8000 м дымка ясно +19.4 +16.4 83 +22 +25 комфорт 1019.1 1016.4 +13.4 +19.4
СВ 4 10 км ясно +21.4 +14.9 66 +24 +29 комфорт 1019.0 1016.4
С 4 10 км ясно +22.7 +13.7 57 +26 +33 жарко 1018.9 1016.2
С 3 10 км 3/0
[Cs]
+24.0 +14.5 55 +27 +35 жарко 1018.8 1016.1
С 3 10 км 8/0
[As trans Cs]
+24.1 +14.0 53 +26 +33 жарко 1017.9 1015.2
С 3 10 км 8/0
[As trans Cs]
+24.3 +13.9 52 +27 +31 жарко 1017.2 1014.5
С 3 10 км 9/0
[Cs]
+23.8 +14.5 56 +26 +30 жарко 1017.1 1014.4
С 3 10 км 9/0
[Ac As Cs]
+23.4 +15.1 60 +28 +29 душно 1017.0 1014.4
СВ 2 10 км 8/0
[Ac As Cs]
+22.3 +14.4 61 +26 +26 жарко 1016.4 1013.7
СВ 1 10 км 6/0
[Ac As Cs]
+20.1 +14.1 68 +23 +23 комфорт 1016.3 1013.6
штиль 0 10 км 6/0
[Ac As Cs]
+18.3 +15.4 83 +19 +19 1017.2 1014.4
штиль 0 10 км 8/0
[Cs]
+17.6 +16.1 91 +18 +18 1017.5 1014.8 +17.3 +25.0
штиль 0 10 км 6/0
[Ac trans Cs]
+16.6 +15.8 95 +16 +16 1017.8 1015.2
штиль 0 10 км 6/0
[Cs]
+16.6 +16.1 97 +16 +16 1017.9 1015.2
штиль 0 10 км 6/0
[Cs]
+16.6 +16.4 99 +16 +16 1017.7 1015.0
ЮВ 1 10 км 6/0
[Cs]
+15.8 +15.5 98 +16 +16 1018.2 1015.6
СВ 2 10 км 8/0
[Cs]
+17.4 +16.2 93 +18 +18 1017.7 1015.0
В 2 10 км 8/0
[Cs]
+17.8 +16.3 91 +19 +19 1017.1 1014.4
СВ 2 10 км 8/0
[Cs]
+17.5 +16.0 91 +18 +18 1016.6 1013.8
Ю 1 10 км 6/0
[Cs]
+16.8 +16.0 95 +18 +18 1016.8 1014.1
ЮВ 1 10 км 6/0
[Cs]
+14.0 +13.6 97 +14 +14 1017.5 1014.8
ЮВ 1 10 км местами туман поземный 1/0
[Ac trans]
+13.8 +13.4 97 +14 +14 1017.4 1014.6
штиль 0 10 км {туман} ясно +14.8 +14.6 99 +14 +15 1017.6 1014.8
В 2 10 км {туман} ясно +19.5 +17.7 89 +22 +25 комфорт 1017.7 1015.0 +13.4 +19.5
В 3 10 км ясно +20.9 +17.2 79 +25 +30 комфорт 1017.9 1015.2
В 3 10 км 1/1 540 м
[Cu hum]
+21.9 +17.2 75 +26 +33 душно 1017.7 1015.0
СВ 3 10 км ясно +22.5 +16.1 67 +27 +37 душно 1017.7 1015.0
СВ 4 10 км ясно +23.0 +15.8 64 +27 +36 душно 1017.5 1014.8
СВ 3 10 км ясно +23.3 +15.2 60 +27 +36 душно 1017.0 1014.3
В 2 10 км ясно +23.9 +15.6 60 +27 +35 жарко 1016.7 1014.0
СВ 2 10 км ясно +23.9 +15.6 60 +27 +32 жарко 1016.1 1013.4
В 2 10 км ясно +23.7 +14.5 56 +26 +28 жарко 1015.6 1012.9
В 2 10 км ясно +22.3 +15.0 63 +26 +26 жарко 1015.9 1013.2
В 2 10 км ясно +19.8 +16.9 83 +23 +23 комфорт 1015.7 1013.0
ЮВ 2 10 км ясно +18.0 +16.5 91 +19 +19 1016.5 1013.7
ЮВ 2 10 км ясно +17.0 +16.2 95 +18 +18 1016.7 1014.0 +16.8 +24.5
В 1 8000 м дымка ясно +16.3 +16.0 98 +17 +17 1017.0 1014.4
В 2 8000 м дымка ясно +16.0 +15.8 99 +16 +16 1016.7 1014.0
В 1 5000 м местами туман поземный туман ясно +16.2 +16.2 100 +17 +17 1016.6 1013.8
штиль 0 3000 м местами туман поземный туман ясно +16.2 +16.0 99 +16 +16 1016.2 1013.6
штиль 0 400 м туман, небо видно ясно +15.0 +15.0 100 +15 +15 1016.2 1013.6
штиль 0 100 м туман, небо видно ясно +15.2 +15.2 100 +15 +15 1015.9 1013.2
штиль 0 700 м туман, небо видно ясно +15.4 +15.4 100 +15 +15 1015.7 1013.0
штиль 0 10 км в посл. час туман ясно +15.0 +14.7 98 +15 +15 1015.5 1012.8
штиль 0 800 м туман, небо видно ясно +15.2 +15.0 99 +15 +15 1015.5 1012.8
СВ 1 8000 м местами туман поземный туман ясно +15.3 +15.3 100 +16 +16 1015.5 1012.8
СВ 2 8000 м дымка {туман} 5/1 540 м
[St Ci fib]
+17.5 +17.3 99 +18 +19 1015.7 1013.0
СВ 3 7000 м дымка {туман} 10/10 210 м
[St]
+18.4 +18.2 99 +19 +19 1016.1 1013.4 +13.9 +18.7
СВ 3 8000 м дымка 9/9 240 м
[St Ci fib]
+19.1 +18.5 96 +21 +22 комфорт 1016.2 1013.6
С 3 10 км 5/5 540 м
[Sc Ci fib]
+22.0 +18.7 82 +27 +31 душно 1015.8 1013.0
СВ 3 10 км 9/9 600 м
[Cu med, cong]
+22.1 +18.7 81 +27 +28 душно 1015.4 1012.8
СВ 2 10 км 8/8 660 м
[Cu med, cong]
+23.2 +18.7 76 +29 +32 душно 1014.5 1011.8
С 3 10 км 6/6 660 м
[Cu med, cong Ci fib]
+23.5 +18.7 74 +28 +31 душно 1013.4 1010.6
СВ 3 10 км 4/4 660 м
[Cu med, cong Ci fib]
+23.5 +18.8 75 +28 +32 душно 1012.7 1010.0
СВ 3 10 км 3/1 660 м
[Cu med, cong Ci fib]
+24.3 +18.7 71 +29 +33 душно 1012.3 1009.6
СВ 3 10 км 3/1 600 м
[Cu Sc Ci]
+24.6 +18.9 71 +30 +31 очень душно 1012.0 1009.3
СВ 2 10 км 3/1 600 м
[Sc diur, vesp Ci]
+23.2 +18.2 73 +29 +29 душно 1011.8 1009.0
В 1 10 км 3/3 750 м
[Sc diur, vesp Ci fib]
+21.6 +18.8 84 +26 +26 душно 1011.9 1009.2
штиль 0 10 км 1/1 750 м
[Sc diur, vesp]
+19.7 +18.6 93 +22 +22 комфорт 1012.3 1009.6
штиль 0 900 м туман, небо видно 1/0
[Ac trans]
+19.0 +18.4 96 +21 +21 комфорт 1012.8 1010.1 +18.4 +24.6
штиль 0 500 м туман, небо видно ясно +18.4 +17.9 97 +19 +19 1012.8 1010.1
штиль 0 400 м туман, небо видно ясно +17.8 +17.5 98 +18 +18 1012.8 1010.1
З 1 200 м туман, небо видно ясно +16.4 +16.1 98 +17 +17 1013.0 1010.2
З 1 400 м туман, небо видно ясно +15.8 +15.5 98 +17 +17 1013.3 1010.6
ЮЗ 1 200 м туман, небо видно ясно +15.3 +15.1 99 +16 +16 1013.9 1011.2
штиль 0 <100 м туман, небо видно ясно +14.9 +14.9 100 +15 +15 1013.7 1011.0
штиль 0 <100 м туман, небо видно ясно +14.5 +14.5 100 +14 +14 1013.3 1010.6
штиль 0 <100 м туман, небо видно 4/4 1350 м
[Sc]
+14.1 +14.1 100 +14 +14 1013.7 1011.0
штиль 0 100 м туман, небо видно 6/6 1350 м
[Sc]
+14.5 +14.3 99 +14 +14 1014.0 1011.3
З 1 <100 м туман, небо видно 5/5 1350 м
[Sc]
+15.0 +14.8 99 +16 +16 1014.7 1012.0
штиль 0 300 м туман, небо видно 1/0
[Ac As]
+15.3 +15.1 99 +15 +16 1015.0 1012.2
штиль 0 4000 м в посл. час туман ясно +18.3 +18.0 98 +19 +22 1015.8 1013.0 +13.7 +19.1
З 3 8000 м дымка {туман} 3/0
[Ci fib]
+22.6 +19.8 84 +29 +33 очень душно 1016.1 1013.4
З 4 10 км 4/3 900 м
[Sc Ci fib]
+23.9 +18.6 72 +28 +32 душно 1016.1 1013.4
З 3 10 км 6/6 900 м
[Cu med, cong]
+24.3 +18.7 71 +29 +33 душно 1015.9 1013.2
ЮЗ 3 10 км 4/4 900 м
[Cu med, cong]
+25.4 +17.7 62 +30 +35 душно 1015.4 1012.8
Ю 4 10 км 5/5 900 м
[Cu med, cong]
+24.9 +18.0 66 +29 +33 душно 1014.8 1012.1
ЮЗ 5 10 км 6/6 900 м
[Cu med, cong]
+24.7 +17.9 66 +29 +31 душно 1014.7 1012.0
Ю 5 10 км 6/6 900 м
[Cu med, cong]
+24.2 +18.2 69 +29 +30 душно 1014.9 1012.2
Ю 3 10 км 6/4 900 м
[Sc Ac As]
+22.2 +17.9 77 +27 +28 душно 1015.4 1012.8
Ю 8 10 км 8/4 900 м
[Sc Ac As]
+20.6 +17.2 81 +24 +24 комфорт 1015.8 1013.0
Ю 5 10 км 10/10 750 м
[Sc]
+18.7 +16.2 85 +19 +19 1016.3 1013.6
Ю 5 10 км 10/10 750 м
[Sc]
+18.2 +15.5 84 +18 +18 1016.8 1014.1
Ю 5 10 км 10/10 540 м
[St]
+17.6 +14.1 80 +17 +17 1017.3 1014.6 +17.2 +26.9
Ю 5 10 км 10/10 540 м
[St]
+16.8 +13.5 81 +16 +16 1018.1 1015.4
Ю 6 10 км 10/10 540 м
[St]
+15.6 +12.2 80 +14 +14 1018.6 1016.0
Ю 5 10 км 10/10 540 м
[St]
+14.8 +11.1 78 +13 +13 1019.1 1016.4
Ю 5 10 км 10/10 540 м
[St]
+14.0 +10.4 79 +12 +12 1019.1 1016.4
Ю 6 10 км 10/10 540 м
[St]
+13.5 +10.1 80 +11 +11 1019.5 1016.8
Ю 5 10 км 10/10 540 м
[St]
+13.2 +10.1 81 +11 +11 1019.3 1016.6
Ю 4 10 км 10/10 540 м
[St]
+12.9 +9.8 81 +11 +11 1019.7 1017.0
Ю 5 10 км 10/10 540 м
[St]
+12.1 +8.9 81 +10 +10 1019.9 1017.2
Ю 6 10 км 8/8 540 м
[St]
+11.6 +8.2 80 +9 +9 1020.8 1018.0
Ю 5 10 км 8/3 540 м
[St Ac As]
+11.1 +7.4 78 +9 +9 1021.1 1018.4
Ю 6 10 км 9/0
[Ac As Ci fib]
+11.6 +7.1 74 +9 +9 1021.9 1019.2
Ю 7 10 км 8/0
[Ac As Ci fib]
+12.8 +6.4 65 +10 +11 1022.5 1019.7 +10.8 +17.6
Ю 7 10 км 3/0
[Ac trans]
+15.6 +7.0 57 +14 +16 1023.3 1020.5
Ю 8 10 км 3/0
[Ac trans]
+16.2 +7.3 56 +15 +16 1023.1 1020.4
Ю 7 10 км 4/1 600 м
[Cu hum Ac trans Ci]
+17.0 +7.8 55 +16 +18 1022.7 1020.0
Ю 7 10 км 5/4 600 м
[Cu hum Ac trans Ci]
+18.0 +8.2 53 +17 +19 1022.5 1019.7
Ю 6 10 км 4/4 750 м
[Sc diur, vesp Ci fib]
+17.6 +8.1 54 +17 +19 1022.0 1019.2
Ю 6 10 км 5/4 600 м
[Cu hum Ci fib]
+17.8 +7.2 50 +17 +19 1022.4 1019.6
Ю 6 10 км 6/4 750 м
[Sc diur, vesp Ac trans Ci fib]
+17.2 +7.6 53 +16 +17 1022.5 1019.7
Ю 5 10 км 8/3 750 м
[Sc diur, vesp Ac As]
+16.0 +6.5 53 +15 +15 1022.8 1020.0
Ю 3 10 км 8/1 750 м
[Sc diur, vesp Ac As]
+15.0 +8.6 66 +14 +14 1023.7 1020.9
Ю 3 10 км 8/0
[Ac As]
+14.2 +8.0 66 +13 +13 1023.8 1021.0
Ю 2 10 км 9/3 750 м
[Sc diur, vesp Ac As]
+13.6 +9.1 74 +13 +13 1024.3 1021.6
Ю 4 10 км 8/4 600 м
[Sc diur, vesp Ac As]
+13.8 +8.5 70 +13 +13 1025.0 1022.2 +12.4 +18.5
ЮВ 3 10 км 8/0
[Ac As]
+13.2 +7.3 67 +12 +12 1025.3 1022.5
ЮВ 3 8000 м слаб. дождь 10/6 840 м
[Sc As op]
+13.3 +6.7 64 +12 +12 1025.4 1022.6
Ю 2 10 км в посл. час дождь 8/4 900 м
[Frnb Ac As]
+12.2 +8.2 77 +12 +12 1025.9 1023.2
Ю 3 10 км {дождь} 5/0
[Ac cast]
+10.2 +7.9 86 +8 +8 1025.7 1022.9
Ю 4 10 км 4/0
[Ac cast]
+9.7 +6.7 82 +7 +7 1025.5 1022.8
Ю 3 10 км {дождь} 5/5 900 м
[Sc]
+9.3 +6.8 84 +7 +7 1025.3 1022.5 0.0
Ю 5 10 км 8/5 900 м
[Sc Ac As]
+10.0 +6.6 79 +7 +7 1025.4 1022.6
Ю 5 10 км 8/3 900 м
[Sc Ac As]
+10.0 +6.8 80 +7 +7 1025.1 1022.4
Ю 5 10 км 4/0
[Ac trans]
+9.8 +6.2 78 +7 +7 1025.3 1022.5
Ю 4 10 км 4/4 900 м
[Sc Ac cast]
+8.0 +6.3 89 +5 +5 1025.5 1022.8
Ю 4 10 км 4/4 900 м
[Sc]
+8.4 +6.5 88 +5 +5 1026.0 1023.2
Ю 5 10 км 4/4 900 м
[Sc]
+11.5 +7.2 75 +9 +10 1026.3 1023.6 +7.6 +13.8 0.0
Ю 4 10 км 5/5 1350 м
[Sc]
+13.8 +8.5 70 +13 +15 1027.1 1024.4
Ю 6 10 км 5/5 1410 м
[Sc]
+17.1 +9.8 62 +16 +18 1027.2 1024.4
ЮВ 6 10 км 8/8 900 м
[Cu Sc]
+17.4 +9.7 61 +17 +18 1027.0 1024.2
ЮВ 5 10 км 9/9 900 м
[Sc]
+17.0 +9.6 62 +16 +17 1026.7 1024.0
В 4 10 км 9/8 960 м
[Sc Ac trans]
+17.4 +10.4 63 +17 +18 1026.4 1023.6
ЮВ 5 10 км 9/8 960 м
[Sc Ac As]
+17.3 +10.2 63 +17 +17 1025.9 1023.2
ЮВ 5 10 км 5/1 1200 м
[Cu med, cong Ac As]
+16.8 +9.2 61 +16 +18 1026.0 1023.2
ЮВ 5 10 км 6/1 1050 м
[Cu hum Ac As]
+15.6 +8.4 62 +15 +15 1025.9 1023.2
ЮВ 3 10 км 6/0
[Ac As]
+14.8 +8.3 65 +14 +14 1026.1 1023.3
ЮВ 3 10 км 8/5 900 м
[Sc Ac As]
+13.4 +9.9 79 +12 +12 1026.4 1023.6
ЮВ 3 10 км 8/4 900 м
[Sc Ac As]
+13.4 +8.7 73 +12 +12 1026.9 1024.1
ЮВ 4 10 км в посл. час дождь 6/3 600 м
[St Ac As]
+13.3 +8.8 74 +12 +12 1027.0 1024.2 +11.2 +18.3 0.0
ЮВ 3 10 км {дождь} 6/3 600 м
[Sc Ac As]
+12.8 +9.1 78 +11 +11 1026.7 1023.9
Ю 4 10 км 4/0
[Ac trans]
+13.1 +9.8 80 +12 +12 1026.9 1024.1
Ю 3 10 км 5/5 600 м
[Sc]
+13.1 +10.2 83 +12 +12 1027.0 1024.2
Ю 3 10 км 5/5 600 м
[Sc]
+13.0 +10.9 87 +12 +12 1026.5 1023.7
Ю 3 10 км 4/4 450 м
[Sc]
+12.1 +11.2 94 +11 +11 1026.3 1023.5
ЮВ 2 10 км 8/8 450 м
[Sc]
+13.1 +11.8 92 +12 +12 1025.7 1022.9
ЮВ 1 10 км 9/9 450 м
[Sc]
+13.3 +12.0 92 +13 +13 1025.2 1022.4
Ю 2 10 км 9/9 450 м
[Sc]
+13.5 +12.6 94 +13 +13 1025.5 1022.7
Ю 2 10 км 8/3 450 м
[Sc Ac As]
+13.3 +12.6 96 +13 +13 1025.9 1023.1
Ю 2 8000 м дымка 9/3 450 м
[Sc Ac As]
+13.3 +12.8 97 +13 +13 1025.9 1023.1
Ю 1 9000 м дымка 9/5 600 м
[Sc As op Cc]
+14.9 +13.5 91 +15 +16 1026.1 1023.3 +11.6 +15.1 0.0
В 6 10 км 9/1 600 м
[Sc Ac As Cc]
+18.3 +11.6 65 +18 +19 1025.3 1022.5
В 6 10 км 9/3 600 м
[Cu med, cong As op Cs]
+18.6 +11.8 65 +19 +20 1025.4 1022.6
В 5 10 км 9/0 1500 м
[Ac As]
+18.7 +12.5 67 +19 +21 1025.2 1022.4
В 5 10 км 10/1 600 м
[Cu hum Ac As Cs]
+19.5 +12.2 63 +21 +23 комфорт 1024.6 1021.8
В 6 10 км 9/1 600 м
[Cu hum Ac As Cs]
+19.4 +11.5 60 +20 +22 1023.6 1020.8
В 6 10 км 10/0
[Ac As Cs]
+19.6 +11.5 59 +21 +22 комфорт 1023.1 1020.4
ЮВ 4 10 км 10/10 1500 м
[Ns]
+18.7 +12.7 68 +19 +19 1023.1 1020.4
В 4 10 км 10/10 1500 м
[Ns]
+18.2 +13.3 73 +18 +18 1023.0 1020.2
ЮВ 3 10 км 10/10 1500 м
[Ns]
+17.5 +13.9 79 +17 +17 1022.9 1020.1
ЮВ 4 8000 м слаб. дождь 10/10 1500 м
[Ns]
+16.7 +13.7 82 +16 +16 1022.1 1019.3
ЮВ 6 8000 м слаб. дождь 10/10 1500 м
[Ns]
+16.5 +13.1 80 +15 +15 1021.8 1019.0
ЮВ 4 8000 м слаб. дождь 10/10 1500 м
[Ns]
+16.2 +14.5 90 +16 +16 1022.0 1019.2 +14.7 +20.2 0.0
ЮВ 3 8000 м слаб. дождь 10/10 1500 м
[Ns]
+16.4 +14.7 90 +16 +16 1022.6 1019.8
В 3 8000 м слаб. дождь 10/10 1500 м
[Ns]
+17.2 +15.9 92 +17 +17 1022.5 1019.7
В 6 7000 м дождь 10/10 1500 м
[Ns]
+16.9 +15.6 92 +16 +16 1022.9 1020.1
В 5 7000 м дождь 10/10 1500 м
[Ns]
+17.1 +15.6 91 +16 +16 1022.3 1019.6
В 3 7000 м дождь 10/10 1500 м
[Ns]
+16.6 +14.7 89 +16 +16 1022.7 1020.0
В 4 8000 м слаб. дождь 10/10 1500 м
[Ns]
+16.5 +14.4 87 +16 +16 1021.3 1018.6 3
В 4 8000 м слаб. дождь 10/10 1500 м
[Ns]
+17.3 +15.1 87 +17 +17 1021.1 1018.4
ЮВ 3 10 км в посл. час дождь 10/10 1500 м
[Ns]
+17.2 +13.7 80 +17 +17 1021.0 1018.2
Местоположение метеостанции Ла-Плата (Аргентина): широта -34.96 долгота -57.90 высота над уровнем моря 19 м.
В архиве по умолчанию представлена погода в Ла-Плате за последнюю неделю. Архивные данные за месяц целиком и за предыдущие месяцы, начиная с января 2011 года, Вы можете получить, выбрав интересующий диапазон дат из раскрывающегося списка и нажав кнопку "Найти!".
*Определитесь, кто Вы:
Внимание! Время в таблицах - всемирное. Для получения местного времени необходимо прибавить поправку, которая равна -3 ч.
Некоторые строки с данными для отдельных станций могут быть выделены курсивом. Это означает, что фактические данные отсутствуют по различным причинам, а приведенные значения являются расчетными модельными данными для данного пункта наблюдений.
Смотрите также архив погоды в соседних городах и на ближайших метеорологических станциях:
Партнеры нашего сайта:      
Пояснения к столбцам:
  • Ветер - указаны скорость ветра в м/с - средняя за 10 мин, порывы в срок и между сроками (в фигурных скобках) и направление, откуда дует ветер: С - северный,
  • СВ - северо-восточный, В - восточный, ЮВ - юго-восточный, Ю - южный, ЮЗ - юго-западный, З - западный, СЗ - северо-западный.
  • Видимость - горизонтальная дальность видимости в метрах или километрах. При видимости от 1 до 10 км при отсутствии осадков обычно наблюдается дымка, при ухудшении видимости до 1 км и менее - туман. В сухую погоду видимость может ухудшаться дымом, пылью или мглою.
  • Явления - указаны атмосферные явления, наблюдавшиеся в срок или в последний час перед сроком; фигурными скобками обозначены явления, наблюдавшиеся между сроками (за 1-3 часа до срока); квадратными скобками обозначены град или гололедные отложения с указанием их диаметра в мм.
  • Облачность - указаны через наклонную черту общая и нижняя облачность в баллах и высота нижней границы облаков в метрах; квадратными скобками обозначены формы облаков: Ci - перистые, Cs - перисто-слоистые, Cc - перисто-кучевые, Ac - высококучевые, As - высокослоистые, Sc - слоисто-кучевые, Ns - слоисто-дождевые, Cu - кучевые, Cb - кучево-дождевые. Подробнее классификацию облаков см. в Атласе облаков (PDF).
  • T - Температура воздуха - температура, измеренная на высоте 2 м над землей.
  • Td - Температура точки росы - температура, при понижении до которой содержащийся в воздухе водяной пар достигнет насыщения.
  • f - Относительная влажность воздуха - влажноcть воздуха, измеренная на высоте 2 м над землей.
  • Te - Эффективная температура - температура, которую ощущает одетый по сезону человек в тени. Характеристика душности погоды. При расчете учитывается влияние влажности воздуха и скорости ветра на теплоощущения человека.
  • Tes - Эффективная температура на солнце - температура, которую ощущает человек, с поправкой на солнечный нагрев. Характеристика знойности погоды. Зависит от высоты солнца над горизонтом, облачности и скорости ветра. Ночью, в пасмурную погоду, а также при ветре 12 м/с и более поправка равна нулю.
  • P - Атмосферное давление - приведенное к уровню моря атмосферное давление.
  • Po - Атмосферное давление - измеренное на уровне метеостанции атмосферное давление.
  • Tmin - Минимальная температура - минимум температуры воздуха на высоте 2 м над землей.
  • Tmax - Максимальная температура - максимум температуры воздуха на высоте 2 м над землей.
  • R - Количество осадков - Количество выпавших осадков за период времени, мм. При наведении курсора мыши на число - период времени, за который выпало указанное количество осадков.
  • R24 - Количество осадков - Количество выпавших осадков за 24 часа, мм.
  • S - Снежный покров - Высота снежного покрова, см. При наведении курсора мыши на число - состояние снежного покрова и степень покрытия местности в баллах.